Location: Bh?mavarapp?du
(16.7041°N, 80.6518°E)
Time: 01:59:46
(UTC+00:00)

OBJECT-B - Pass Details

Date: 21 April 2021
Orbit: 415 x 424 km, 97.0° (Epoch: 25 April)

Event Time Altitude Azimuth Distance (km) Brightness Sun altitude
Exits shadow 14:25:58 10° 15° (NNE) 1,483 3.6 -21.8°
Drops below altitude 10° 14:26:00 10° 15° (NNE) 1,494 3.6 -21.8°
Sets 14:28:08 0° 4° (N) 2,360 4.8 -22.3°
